Home > Weather > Sevilla > Past weeks

Flag for Spain Past Weather in Sevilla, Spain — Yesterday and Last 2 Weeks

Now
100 °F

Passing clouds.


Feels Like: 98 °F
Forecast: 70 / 100 °F
Wind: 8 mph from Southwest

Location: Sevilla / San Pablo

Current Time: Aug 27, 2016 at 5:30:41 PM

Latest Report: Aug 27, 2016 at 4:30 PM


Visibility: N/A

Pressure: 29.98 "Hg

Humidity: 21%

Dew Point: 54 °F

Location of SevillaLocation

Past Weather in Sevilla — Graph

°F

Sevilla Temperature Yesterday

Maximum temperature yesterday: 102 °F (at 5:00 PM)
Minimum temperature yesterday: 73 °F (at 6:30 AM)
Average temperature yesterday: 86 °F

High & Low Weather Summary for the Past Weeks

 TemperatureHumidityPressure
High102 °F (Aug 23, 4:30 PM)100% (Aug 17, 7:00 AM)30.09 "Hg (Aug 17, 7:00 AM)
Low63 °F (Aug 21, 7:00 AM)10% (Aug 20, 7:30 PM)29.80 "Hg (Aug 18, 7:30 PM)
Average83 °F45%29.97 "Hg
* Reported Aug 12 4:00 PM — Aug 27 4:00 PM, Sevilla, Weather by CustomWeather, © 2016

Note: Actual official high and low records may vary slightly from our data, if they occured in-between our weather recording intervals... More about our weather records

Advertising

Sevilla Weather History for the Previous 24 Hours

Scroll right to see more
 ConditionsComfort  
Time TempWeatherWind HumidityBarometerVisibility
4:00 PM
Sat, Aug 27
99 °FSunny.5 mph21%29.98 "Hg10 mi
3:30 PM99 °FSunny.3 mph21%29.98 "Hg10 mi
3:00 PM100 °FSunny.1 mph21%30.01 "Hg10 mi
2:30 PM97 °FSunny.2 mph23%30.01 "Hg10 mi
2:00 PM95 °FSunny.2 mph28%30.01 "Hg10 mi
1:30 PM93 °FSunny.3 mph28%30.01 "Hg10 mi
1:00 PM93 °FSunny.2 mph28%30.04 "Hg10 mi
12:30 PM91 °FPassing clouds.3 mph32%30.04 "HgN/A
12:00 PM90 °FPassing clouds.6 mph33%30.04 "HgN/A
11:30 AM88 °FPassing clouds.6 mph35%30.04 "HgN/A
11:00 AM86 °FPassing clouds.7 mph38%30.01 "HgN/A
10:30 AM84 °FPassing clouds.6 mph40%30.01 "HgN/A
10:00 AM79 °FPassing clouds.3 mph51%30.01 "HgN/A
9:30 AM77 °FPassing clouds.5 mph54%30.01 "HgN/A
9:00 AM73 °FSunny.1 mph61%30.01 "Hg10 mi
8:30 AM73 °FClear.2 mph61%30.01 "Hg10 mi
8:00 AM73 °FClear.3 mph57%29.98 "Hg10 mi
7:30 AM73 °FClear.2 mph61%29.98 "Hg10 mi
7:00 AM73 °FClear.No wind61%29.98 "Hg10 mi
6:30 AM75 °FClear.3 mph57%29.98 "Hg10 mi
6:00 AM75 °FClear.3 mph57%29.98 "Hg10 mi
5:30 AM75 °FClear.2 mph57%29.98 "Hg10 mi
5:00 AM75 °FClear.2 mph57%29.98 "Hg10 mi
4:30 AM75 °FClear.No wind61%29.98 "Hg10 mi
4:00 AM77 °FClear.No wind54%29.98 "Hg10 mi
3:30 AM77 °FClear.1 mph57%29.98 "Hg10 mi
3:00 AM77 °FWarm.2 mph54%29.98 "HgN/A
2:30 AM79 °FWarm.1 mph54%30.01 "HgN/A
2:00 AM79 °FWarm.2 mph54%30.01 "HgN/A
1:30 AM79 °FWarm.5 mph51%30.01 "HgN/A
1:00 AM81 °FClear.7 mph48%30.01 "Hg10 mi
12:30 AM82 °FClear.9 mph42%30.01 "Hg10 mi
12:00 AM82 °FPassing clouds.9 mph42%29.98 "HgN/A
11:30 PM
Fri, Aug 26
84 °FClear.14 mph37%29.98 "Hg10 mi
11:00 PM84 °FClear.14 mph37%29.95 "Hg10 mi
10:30 PM86 °FClear.16 mph35%29.92 "Hg10 mi
10:00 PM88 °FPassing clouds.17 mph35%29.89 "HgN/A
9:30 PM91 °FSunny.14 mph30%29.86 "Hg10 mi
9:00 PM95 °FSunny.8 mph25%29.86 "Hg10 mi
8:30 PM95 °FSunny.8 mph23%29.83 "Hg10 mi
8:00 PM97 °FPassing clouds.9 mph22%29.83 "HgN/A
7:30 PM99 °FPassing clouds.9 mph18%29.83 "HgN/A
7:00 PM100 °FPassing clouds.8 mph16%29.83 "HgN/A
6:30 PM102 °FPassing clouds.9 mph16%29.83 "HgN/A
6:00 PM102 °FPassing clouds.3 mph16%29.83 "HgN/A
5:30 PM100 °FSunny.2 mph17%29.83 "Hg10 mi
5:00 PM102 °FSunny.3 mph15%29.86 "Hg10 mi
Weather by CustomWeather, © 2016

See weather overviewHow to use our weather pages